sat.trackr.live / text

‹ back to catalog

SKYSAT-C11

NORAD 42987 · 2017-068A

PAYLOAD ACTIVE UNKNOWN

§ Identity

Operator
Country
US
Launch date
2017-10-31
Launch site
AFWTR
Launch vehicle
Mass (kg)
RCS (m²)

Purposes: earth_obs

External: N2YO · Heavens-Above · Gunter

§ Orbital elements

Epoch: 2026-09-12T03:48:56.965824Z

Period
92.16 min
Inclination
97.4452°
Eccentricity
0.0001054
Mean motion
15.62501942 rev/d
Perigee alt
379.7 km
Apogee alt
381.1 km
Semi-major
6,758.6 km
B*
3.4443e-4
RAAN
48.1330°
Arg perigee
66.3428°
Mean anomaly
293.7940°
Rev number
49,680

§ Raw data

SKYSAT-C111 42987U 17068A   26255.15899266  .00030571  00000+0  34443-3 0  99942 42987  97.4452  48.1330 0001054  66.3428 293.7940 15.62501942496807

JSON: /api/v1/satellites/42987 · /tle

For live sub-satellite position, see the globe view (requires WebGL).

§ Visibility from observer

Set your observer location to see the next 7 days of passes ≥ 10°. The values pass through the URL so the page stays shareable.

No JS? Fill the form by hand. The geolocation button needs JavaScript.